Location: Bluff Heights
(33.7692°N, 118.1592°W)
Time: 16:50:51
(UTC+00:00)

Tiros 1 - Pass Details

Date: 01 August 2021
Orbit: 630 x 663 km, 48.4° (Epoch: 22 September)

Event Time Altitude Azimuth Distance (km) Brightness Sun altitude
Rises 01:42:36 0° 242° (WSW) 2,980 11.4 13.2°
Reaches altitude 10° 01:45:00 10° 247° (WSW) 2,067 10.8 12.7°
Maximum altitude 01:49:41 56° 325° (NW) 781 8.2 11.8°
Drops below altitude 10° 01:54:22 10° 44° (NE) 2,059 9.5 10.8°
Sets 01:56:44 0° 49° (NE) 2,966 10.2 10.3°
